NANAKWA Weather Reports


Display with metric or nautical units.
time (UTC)temp
F
wind
direction
speed
MPH
gust
MPH
rain 1hr
in
rain 24hr
in
rain mn
in
humidity
%
barometer
mb
20260506043850 32 202 14.0 19.0 0.00 0.00 0.00 1013.0
20260506041050 32 202 14.0 19.0 0.00 0.00 0.00 1013.0
20260506034249 32 225 19.0 22.0 0.00 0.00 0.00 1012.0
20260506031449 32 225 19.0 22.0 0.00 0.00 0.00 1012.0
20260506024648 32 225 17.0 21.0 0.00 0.00 0.00 1012.0
20260506021847 32 225 17.0 21.0 0.00 0.00 0.00 1012.0
20260506015047 32 202 18.0 19.0 0.00 0.00 0.00 1012.0
20260506012246 32 202 18.0 19.0 0.00 0.00 0.00 1012.0
20260506005446 32 225 16.0 18.0 0.00 0.00 0.00 1012.0
20260506002645 32 225 16.0 18.0 0.00 0.00 0.00 1012.0
20260505235844 32 225 11.0 15.0 0.00 0.00 0.00 1012.0
20260505233044 32 225 11.0 15.0 0.00 0.00 0.00 1012.0
20260505230243 32 202 5.0 7.0 0.00 0.00 0.00 1013.0
20260505223442 32 202 5.0 7.0 0.00 0.00 0.00 1013.0
20260505220642 32 360 0.0 0.0 0.00 0.00 0.00 1013.0
20260505213841 32 360 0.0 0.0 0.00 0.00 0.00 1013.0
20260505211040 32 360 0.0 0.0 0.00 0.00 0.00 1013.0
20260505204240 32 360 0.0 0.0 0.00 0.00 0.00 1014.0
20260505201439 32 360 0.0 0.0 0.00 0.00 0.00 1014.0
20260505194638 32 360 0.0 0.0 0.00 0.00 0.00 1014.0
20260505184536 32 360 0.0 0.0 0.00 0.00 0.00 1014.0
20260505181734 32 360 0.0 0.0 0.00 0.00 0.00 1014.0
20260505174933 32 0 6.0 8.0 0.00 0.00 0.00 1014.0
20260505172132 32 0 6.0 8.0 0.00 0.00 0.00 1014.0
20260505165330 32 22 9.0 10.0 0.00 0.00 0.00 1014.0
20260505162529 32 22 9.0 10.0 0.00 0.00 0.00 1014.0
20260505152926 32 45 10.0 12.0 0.00 0.00 0.00 1014.0
20260505150124 32 22 6.0 8.0 0.00 0.00 0.00 1014.0
20260505140522 32 22 9.0 10.0 0.00 0.00 0.00 1013.0
20260505124117 32 22 8.0 10.0 0.00 0.00 0.00 1013.0
20260505121316 32 22 8.0 10.0 0.00 0.00 0.00 1013.0
20260505114514 32 0 6.0 8.0 0.00 0.00 0.00 1013.0
20260505111713 32 0 6.0 8.0 0.00 0.00 0.00 1013.0
20260505101608 32 22 9.0 11.0 0.00 0.00 0.00 1012.0
20260505094807 32 0 5.0 7.0 0.00 0.00 0.00 1012.0
20260505092005 32 0 5.0 7.0 0.00 0.00 0.00 1012.0
20260505085203 32 67 3.0 5.0 0.00 0.00 0.00 1012.0
20260505082403 32 67 3.0 5.0 0.00 0.00 0.00 1012.0
20260505075602 32 45 2.0 5.0 0.00 0.00 0.00 1012.0
20260505072800 32 45 2.0 5.0 0.00 0.00 0.00 1012.0
20260505065959 32 180 1.0 3.0 0.00 0.00 0.00 1011.0
20260505063158 32 180 1.0 3.0 0.00 0.00 0.00 1011.0
20260505060356 32 180 3.0 4.0 0.00 0.00 0.00 1011.0
20260505053555 32 180 3.0 4.0 0.00 0.00 0.00 1011.0
20260505050753 32 22 6.0 7.0 0.00 0.00 0.00 1011.0